Location: *
(28.3744°N, 81.5492°W)
Time: 15:05:12
(UTC+00:00)

Cosmos 1331 Rocket - Pass Details

Date: 15 June 2025
Orbit: 746 x 773 km, 74.0° (Epoch: 15 July)

Event Time Altitude Azimuth Distance (km) Brightness Sun altitude
Rises 01:58:21 0° 350° (N) 3,190 8.0 -18.0°
Reaches altitude 10° 02:00:45 10° 355° (N) 2,263 7.1 -18.4°
Maximum altitude 02:05:46 56° 73° (ENE) 889 4.1 -19.2°
Enters shadow 02:07:22 39° 127° (SE) 1,108 4.3 -19.5°
